GFSCGP_925_spd_273.txt.gz
Wind_Speed
3 4 2 1 4 6 6 9 17 15 9 3 8 8 7 2 2 8 10 12 12 13 17 21 24 24 22 23 21 20 17 15 15 10 5 7 10 12 14 14 12 12 12 13
3 2 2 1 5 5 9 15 11 8 2 5 9 12 5 3 2 3 7 11 13 15 15 20 23 23 23 22 23 19 18 16 14 13 11 8 8 13 15 13 12 10 11 12
4 1 1 1 3 4 9 7 6 13 10 7 5 7 1 2 4 6 9 10 12 13 15 16 21 22 23 22 25 21 18 17 15 15 14 11 10 10 12 9 10 10 11 12
4 1 2 3 3 4 6 5 11 14 2 3 2 4 2 2 3 7 12 12 13 14 13 14 20 23 23 23 22 20 17 15 15 13 12 10 9 8 6 9 7 11 11 11
2 1 2 2 2 4 10 16 8 4 3 2 2 1 4 2 3 12 14 14 14 14 13 14 18 22 21 21 21 19 17 15 16 14 11 10 9 9 8 6 6 9 7 4
4 1 3 3 4 3 11 4 1 3 1 3 3 2 4 2 3 7 12 13 14 15 14 15 20 21 21 22 22 21 19 17 17 15 12 10 8 7 6 6 5 7 6 3
5 2 2 3 5 2 7 5 4 6 4 4 2 3 7 4 5 3 10 13 12 13 14 14 15 21 24 25 25 23 20 18 18 16 14 12 8 8 8 9 9 8 9 10
4 6 2 3 4 3 4 2 4 5 3 6 4 5 4 5 5 5 5 8 10 12 12 13 16 20 21 23 24 23 21 19 18 15 14 12 11 12 14 14 14 15 16 15
3 5 2 3 2 4 3 4 2 2 2 3 3 4 3 4 5 5 8 10 9 11 11 12 17 18 20 21 22 21 20 18 17 15 14 15 16 17 19 20 19 20 21 22
4 3 2 3 2 1 1 4 1 2 4 5 6 5 3 3 9 12 11 9 9 10 11 11 14 17 18 18 18 18 18 19 18 17 16 17 20 24 25 25 27 25 25 27
4 3 2 3 1 5 1 1 1 2 3 3 4 6 4 4 4 8 9 10 8 9 10 10 13 14 16 18 19 18 20 20 20 20 19 22 24 28 32 33 32 31 34 36
5 4 3 6 4 2 2 5 3 3 4 3 2 7 4 5 4 3 9 11 8 8 8 8 11 13 16 18 19 18 20 20 20 21 23 25 28 32 37 37 34 34 43 43
5 1 4 5 2 1 2 3 3 1 3 4 3 6 1 1 2 5 6 8 9 8 8 7 10 12 16 17 19 18 21 20 21 24 25 28 29 32 35 43 37 41 45 46
5 2 6 6 6 3 2 4 5 3 3 3 6 9 7 7 6 6 6 7 6 6 6 5 6 11 15 16 16 19 19 20 21 25 28 31 30 31 34 36 42 40 41 46
3 3 2 5 3 2 4 7 5 8 5 5 4 5 12 7 4 3 3 4 5 6 7 6 6 8 13 14 17 20 22 21 20 21 25 27 30 33 33 34 38 34 35 43
1 1 1 4 1 2 5 9 8 6 3 8 2 8 5 4 3 2 1 4 3 3 5 6 6 10 12 13 15 19 20 21 22 24 25 25 30 31 31 31 36 35 34 36
4 3 1 5 2 3 6 8 7 3 4 5 3 6 1 5 7 3 4 2 3 4 2 3 5 10 12 13 12 17 17 18 20 23 19 23 27 29 30 31 29 30 30 30
5 4 2 4 4 4 6 2 3 6 7 8 3 4 4 4 5 6 5 4 3 2 2 3 6 8 10 11 12 13 12 16 18 18 20 23 25 29 31 30 29 30 30 27
2 4 1 1 2 7 2 5 7 6 6 10 8 3 3 3 0 5 3 5 4 3 2 3 5 4 5 9 11 14 16 18 19 19 22 22 24 29 29 29 26 25 26 26
5 5 3 2 2 5 7 4 5 3 4 10 8 8 9 6 2 4 5 3 4 6 4 3 1 1 4 8 11 14 16 17 19 18 19 20 22 25 25 23 23 23 24 25
3 3 4 3 4 9 5 5 5 5 6 8 10 8 11 6 4 2 8 3 7 8 8 7 7 7 8 10 14 16 17 17 16 17 17 17 18 19 18 18 18 18 19 18
7 8 4 3 3 7 7 5 7 6 3 5 7 10 8 5 4 4 5 7 12 12 11 12 13 13 12 13 14 14 15 14 14 15 15 15 14 15 14 13 14 13 12 13
2 6 5 9 6 3 12 4 4 4 5 7 8 9 13 9 8 10 8 9 13 17 17 17 19 16 15 15 14 15 15 15 14 14 13 12 11 11 10 9 9 8 7 7
5 4 3 3 3 10 10 8 3 6 4 5 7 13 15 11 12 12 9 9 14 19 21 21 19 18 17 17 15 13 15 14 13 11 11 10 9 9 7 6 5 6 7 7
3 5 5 6 9 3 9 12 11 6 2 6 7 10 15 13 15 14 13 13 19 20 22 25 25 25 23 20 18 16 15 15 14 12 10 9 8 8 8 7 6 6 5 4
6 8 6 6 6 4 5 3 12 12 11 11 14 10 11 14 17 15 13 21 23 23 27 28 29 26 24 23 21 19 18 16 15 13 13 12 11 11 11 10 9 8 6 8

GFSCGP_925_spd_276.txt.gz
Wind_Speed
1 4 4 1 1 1 6 10 19 17 11 10 17 19 18 9 8 5 7 10 12 13 17 17 19 19 19 19 19 19 15 17 18 16 8 3 7 7 8 10 11 10 12 14
3 6 4 1 2 5 7 15 14 9 9 14 17 22 16 9 8 2 8 11 12 14 14 18 18 19 20 20 20 19 15 16 17 16 13 7 7 8 8 9 10 9 8 11
5 2 3 1 3 5 8 10 9 17 22 10 10 10 2 6 7 5 8 9 10 12 15 15 18 18 19 20 20 19 15 14 16 17 13 8 8 9 10 7 6 6 8 12
6 2 2 5 3 2 6 3 12 17 7 5 2 6 4 6 7 7 11 12 12 13 13 13 17 19 18 19 19 18 14 12 13 15 13 10 7 6 4 6 6 5 9 12
2 2 2 3 2 1 7 14 13 3 4 5 5 4 2 3 7 4 12 12 12 12 13 14 16 17 16 17 18 16 14 11 13 13 11 9 7 6 5 3 4 4 9 9
3 0 2 2 2 2 10 6 3 1 2 4 4 2 5 3 2 7 12 13 13 14 13 13 16 15 15 16 15 14 15 12 13 12 11 10 8 7 5 5 4 5 6 6
2 2 2 2 3 3 9 7 4 3 2 3 4 5 9 5 4 5 11 12 11 12 13 13 13 16 16 16 16 15 16 15 14 12 11 10 8 6 6 4 4 4 5 6
2 2 1 2 2 1 6 3 2 7 5 7 2 6 2 1 3 6 7 8 8 11 11 12 14 15 15 15 15 16 16 15 13 11 11 10 9 7 6 7 6 9 8 7
1 2 3 2 1 2 4 2 2 4 2 4 4 4 4 2 5 10 9 9 10 12 12 12 15 15 15 15 15 15 15 14 13 11 10 10 10 9 9 9 12 13 12 12
3 4 1 3 2 5 2 7 1 2 5 7 5 5 5 2 11 15 11 10 10 11 11 11 12 14 14 14 13 13 13 14 13 11 10 11 11 12 12 14 18 19 19 19
4 1 2 2 4 3 3 3 3 2 3 4 6 1 2 3 9 13 11 9 9 9 10 10 13 14 13 13 13 13 14 14 13 12 13 14 15 17 18 21 23 24 24 25
4 1 3 0 1 2 1 2 3 2 2 4 4 6 4 2 5 8 10 7 7 7 8 9 12 12 12 13 14 14 15 16 15 14 16 18 20 22 25 27 28 30 32 32
5 2 4 2 2 2 4 5 3 4 1 6 3 4 3 2 4 6 7 6 5 6 8 9 10 10 11 11 12 14 15 17 17 18 20 23 24 25 26 30 34 36 37 36
5 2 5 4 2 2 3 5 9 4 3 2 8 10 4 6 7 6 6 6 6 6 6 7 8 10 10 10 12 14 17 18 17 20 22 23 24 25 27 29 34 37 35 38
1 4 1 5 2 3 4 5 11 11 4 6 2 5 14 7 5 4 5 5 5 5 6 7 8 9 10 10 12 15 18 20 20 20 23 24 25 25 27 30 29 36 34 32
2 1 1 4 1 3 6 9 11 13 5 12 11 12 5 1 2 3 2 2 3 3 3 5 6 9 11 11 12 14 15 17 17 19 21 23 24 26 25 24 25 36 34 30
4 3 1 4 1 4 6 6 12 5 7 5 5 1 3 4 3 3 2 2 1 1 2 2 3 5 7 8 9 12 13 14 15 17 17 17 18 20 21 21 27 31 28 27
5 3 1 4 3 2 1 1 3 6 6 14 3 5 5 3 2 4 5 4 6 5 5 3 1 4 5 5 7 9 10 11 12 13 13 14 16 17 19 23 27 22 22 22
1 2 1 3 2 7 2 4 7 7 4 14 12 5 4 2 2 3 6 6 4 5 3 1 1 2 3 6 6 9 9 9 10 9 10 12 15 18 19 22 23 20 19 18
4 4 1 2 3 3 2 3 5 2 3 9 12 11 9 8 5 4 10 8 9 9 7 6 5 4 5 6 6 7 8 8 8 8 11 13 14 16 18 17 16 16 17 17
4 4 6 4 5 8 2 6 6 1 3 6 12 12 14 8 1 6 11 7 11 12 12 8 6 5 7 8 9 9 8 8 9 12 13 14 14 15 15 17 16 16 17 16
8 9 5 4 4 6 8 7 6 2 1 4 9 10 12 4 6 7 10 10 12 12 12 11 8 8 8 9 9 9 9 11 12 12 12 12 12 12 12 13 12 12 12 11
4 5 3 9 5 2 13 1 3 2 4 7 11 11 14 12 10 14 12 13 15 16 14 13 12 11 12 14 13 12 13 13 13 13 12 11 10 10 10 10 10 9 7 6
6 4 3 2 3 12 10 12 5 6 4 6 11 14 17 13 15 16 13 13 15 17 16 15 14 14 15 18 17 16 16 16 15 13 12 11 10 10 9 8 7 6 6 5
1 7 4 7 10 6 12 14 10 12 6 6 10 13 18 12 14 16 12 12 16 18 18 20 21 19 22 21 21 20 18 18 17 15 14 13 11 10 8 6 6 6 6 7
7 7 6 7 6 2 4 3 11 14 15 12 14 11 12 12 13 12 11 18 20 22 22 23 24 24 26 25 24 22 22 22 20 18 17 14 12 10 10 9 8 10 8 7

GFSCGP_925_spd_279.txt.gz
Wind_Speed
3 5 9 3 2 5 8 10 16 17 7 10 12 21 20 15 14 12 11 9 12 14 16 18 19 21 21 21 18 18 18 17 17 12 13 13 14 13 11 10 8 9 10 11
4 8 4 2 3 8 11 15 17 6 5 16 16 21 15 14 12 10 6 9 12 14 14 17 18 20 20 21 18 17 17 16 15 10 11 11 17 17 11 6 7 8 8 10
10 3 3 3 7 10 12 12 12 13 19 11 11 12 5 1 4 6 8 7 11 12 14 14 17 19 20 19 18 17 16 16 14 11 9 11 13 15 13 11 8 7 3 6
9 4 4 7 9 2 6 3 9 15 11 5 5 6 6 6 7 8 7 9 12 12 12 13 16 18 21 19 18 17 16 16 12 10 5 7 11 15 10 5 1 1 3 6
1 3 5 3 4 2 7 13 14 9 3 9 6 3 3 4 8 8 4 11 12 12 12 13 14 18 20 19 18 17 15 14 14 9 4 5 9 12 11 7 5 4 4 7
6 1 2 2 5 6 11 10 4 1 2 3 6 2 6 3 1 1 6 12 13 13 13 12 16 17 19 19 18 17 15 14 13 9 6 6 7 9 9 6 3 4 6 8
3 4 3 1 4 3 7 8 4 3 2 3 6 6 8 4 2 3 9 12 12 11 12 12 13 17 19 20 19 17 16 14 13 10 9 7 6 6 6 5 3 3 3 5
3 4 4 1 2 1 3 4 2 7 6 10 8 6 0 3 2 5 5 9 10 11 11 12 12 16 18 20 18 17 16 13 12 10 10 7 5 3 3 4 3 2 1 1
3 2 4 4 2 0 2 2 2 3 2 4 4 5 5 3 4 9 8 11 10 10 10 11 13 15 17 18 19 17 17 14 13 12 9 7 7 5 4 4 4 3 4 6
2 4 3 4 2 1 3 6 2 3 5 7 5 6 7 2 9 13 10 10 10 11 10 10 12 16 18 18 17 15 14 14 14 12 9 8 8 7 7 9 9 9 11 12
4 1 3 3 5 4 3 3 2 1 2 4 7 5 3 2 7 12 11 10 10 11 10 10 13 16 15 15 14 13 13 14 14 12 11 11 11 13 13 14 14 16 17 18
3 2 5 1 4 0 1 3 4 3 4 4 3 8 6 3 5 8 10 10 9 9 9 9 12 14 16 16 15 14 16 16 15 14 15 16 16 17 18 19 20 20 24 25
3 3 4 3 2 2 4 5 3 3 1 7 3 5 5 5 8 6 8 8 8 8 9 9 10 11 13 14 14 14 17 16 16 17 18 19 20 22 24 24 24 26 29 32
3 3 5 5 2 1 4 8 10 5 4 3 9 15 6 4 7 6 6 6 6 5 5 6 6 9 12 11 11 12 15 17 18 20 21 21 21 23 25 28 30 31 33 36
2 4 2 8 7 2 7 5 13 14 5 6 1 5 15 11 6 5 5 4 4 4 3 3 5 5 8 8 9 11 16 19 19 22 22 22 23 26 28 29 30 31 33 34
1 2 3 5 2 3 6 10 11 14 11 14 14 17 1 1 1 4 4 3 3 2 2 1 2 4 6 7 8 11 14 17 19 21 21 21 23 25 26 26 25 29 31 29
3 3 2 4 1 6 7 7 13 7 8 6 6 1 3 2 5 4 4 4 4 3 2 1 1 2 4 7 8 10 12 14 16 18 17 17 18 21 22 20 22 25 25 28
4 2 2 5 3 3 1 3 3 7 6 17 5 3 4 1 2 3 4 4 4 4 4 2 2 4 6 7 9 9 11 12 13 14 14 14 15 16 16 17 18 19 23 24
2 2 2 3 4 7 2 5 7 6 5 18 13 6 5 3 2 4 7 6 5 5 3 2 3 2 3 6 7 8 10 10 10 10 11 12 12 14 13 14 15 17 20 21
3 1 3 1 4 3 1 4 5 3 4 7 13 11 9 8 3 2 11 10 7 9 8 7 5 4 4 5 5 7 7 7 9 8 8 10 11 11 12 14 14 14 14 14
4 4 8 8 5 8 2 8 8 1 4 5 12 11 13 8 0 4 12 9 12 12 12 9 8 7 7 7 7 7 7 7 6 7 8 9 9 10 10 10 11 11 12 13
7 8 5 5 5 7 6 6 5 2 2 5 9 10 13 4 5 6 10 10 11 13 14 12 9 8 8 8 8 6 6 8 9 8 8 8 9 8 9 10 10 10 10 10
4 5 3 8 5 1 10 2 2 2 2 5 10 8 11 7 8 13 11 12 13 16 15 14 13 12 10 12 11 10 11 11 11 11 11 10 9 9 8 8 8 7 7 6
6 6 4 2 3 11 12 10 9 5 4 4 9 13 14 11 10 13 12 12 11 16 16 17 15 14 15 17 16 14 13 14 13 11 10 9 8 7 7 6 5 4 5 5
1 8 5 7 14 11 13 12 12 12 7 6 8 12 16 13 13 13 11 12 15 18 18 19 19 18 20 21 21 19 16 17 16 14 12 10 9 9 8 8 7 9 9 9
7 8 6 8 7 3 3 1 5 11 13 13 11 11 13 14 13 13 11 15 18 19 21 21 21 21 23 24 24 23 21 20 19 17 16 15 14 13 13 12 12 14 14 13

GFSCGP_925_spd_285.txt.gz
Wind_Speed
3 2 6 7 8 2 3 2 6 6 7 5 9 14 16 8 8 9 8 8 6 3 3 5 7 10 9 13 16 18 19 21 20 19 19 19 18 21 26 26 25 20 22 25
2 6 3 4 3 2 2 3 7 6 3 4 9 21 20 9 6 4 8 6 5 1 3 5 9 8 8 12 17 18 18 20 20 18 21 21 22 24 27 29 26 20 18 23
5 1 5 2 2 3 3 5 4 5 6 3 9 8 5 2 3 4 4 5 4 2 4 5 8 10 10 14 16 18 21 21 21 21 20 22 23 21 20 19 15 7 13 18
5 2 3 4 4 5 3 2 1 3 5 3 5 5 6 3 5 5 7 6 3 6 5 4 7 11 13 16 17 18 21 21 18 20 19 18 21 21 20 20 17 4 6 10
3 3 3 4 4 5 7 4 3 0 3 4 3 3 8 3 5 8 8 5 6 6 6 6 5 11 13 15 16 18 20 18 21 19 18 18 22 22 21 20 16 4 2 2
5 1 1 2 1 2 2 4 3 3 3 1 5 4 6 4 6 2 4 4 5 6 5 4 7 11 12 14 16 19 17 18 19 19 18 15 18 20 20 13 5 5 5 5
1 3 2 2 1 1 6 4 3 5 2 5 3 2 11 6 6 4 2 5 6 6 2 2 5 6 10 14 18 17 18 17 19 18 16 14 14 15 14 8 5 6 7 7
3 4 3 1 2 4 2 5 4 5 3 5 2 6 6 4 1 2 3 5 4 3 3 3 4 7 11 13 15 16 18 17 18 16 14 12 11 10 9 6 3 4 4 5
0 3 2 3 1 1 2 1 2 4 2 1 4 7 5 2 5 5 5 3 5 3 2 1 5 10 12 15 15 16 15 16 15 14 12 10 9 7 5 2 2 2 2 3
1 4 2 2 2 3 1 4 3 3 3 5 6 6 5 4 6 5 6 6 5 4 4 4 5 10 13 14 15 13 13 13 13 12 9 7 6 3 1 5 6 5 4 3
2 2 1 2 4 7 1 1 1 3 4 4 3 7 5 6 5 7 6 6 5 4 3 4 6 12 14 14 13 12 12 11 11 10 8 6 4 4 6 9 9 8 7 7
1 2 4 4 3 3 1 5 4 4 5 3 3 8 3 5 5 5 7 3 3 1 2 3 7 11 13 13 13 12 11 9 9 8 8 7 6 8 12 12 12 11 14 13
0 2 3 1 1 3 1 3 3 4 3 6 5 6 3 4 6 6 6 4 3 2 4 4 6 8 10 11 11 11 10 10 10 10 12 13 13 14 15 15 16 17 19 20
0 2 4 5 4 4 2 3 5 5 3 3 7 9 12 6 5 5 4 1 4 3 2 3 4 7 10 10 9 10 11 11 12 15 17 17 18 18 19 21 22 24 24 25
1 3 2 6 8 4 6 6 9 10 6 6 4 5 13 14 5 5 3 2 2 3 3 2 4 4 9 8 9 11 13 14 14 17 18 19 21 22 24 26 26 27 28 27
1 2 2 5 1 3 6 9 10 11 3 11 15 22 4 3 2 4 5 4 2 3 2 2 3 5 8 6 9 13 14 17 18 21 22 21 23 24 25 26 26 27 27 28
1 1 3 5 2 3 7 8 11 5 4 7 6 10 2 4 4 5 4 6 5 5 5 4 2 3 7 7 8 11 13 15 17 19 19 20 21 22 23 23 24 25 25 27
2 2 1 4 6 3 6 3 5 6 7 15 8 5 6 5 5 5 4 6 7 7 6 5 5 5 5 6 7 8 8 13 16 18 18 18 19 21 22 23 23 22 22 23
1 2 3 1 2 8 1 3 6 7 7 10 15 7 5 3 3 5 6 5 7 8 8 11 10 7 6 7 6 8 10 12 14 15 16 16 18 20 19 20 20 19 20 20
3 1 1 1 1 4 6 4 5 3 4 3 7 7 7 4 2 4 7 6 5 14 16 15 13 10 8 8 7 9 10 12 13 12 12 12 14 15 16 15 14 14 15 15
2 2 4 2 3 9 6 4 5 5 6 2 5 5 8 5 5 2 8 4 11 15 18 16 15 14 12 11 11 11 10 11 11 11 10 10 10 10 10 10 10 10 11 12
6 5 3 2 1 7 5 3 4 6 4 3 3 6 8 4 2 4 8 8 9 12 18 19 18 17 14 14 13 12 12 13 12 12 11 9 8 8 8 8 9 9 9 9
3 5 3 9 6 6 7 7 5 5 6 4 3 6 8 7 6 8 9 11 11 17 18 21 20 18 17 18 17 17 14 14 14 13 12 12 10 10 10 11 12 11 10 9
4 5 4 1 6 13 15 12 7 8 8 5 6 6 10 10 9 10 7 11 11 18 19 22 21 20 21 22 21 19 18 17 16 15 14 13 12 11 11 11 10 10 10 10
5 8 5 7 17 16 16 10 11 5 5 9 7 7 12 10 8 11 10 12 13 20 22 26 25 23 27 27 26 23 21 21 20 18 17 17 16 15 15 15 14 15 14 14
6 7 6 7 6 6 10 6 1 4 7 8 8 8 8 12 12 12 12 15 18 19 22 24 26 26 31 29 29 28 26 25 24 23 22 22 20 18 18 17 18 19 18 18

GFSCGP_925_spd_291.txt.gz
Wind_Speed
1 1 7 9 7 0 1 3 5 2 2 2 9 12 21 12 8 10 9 8 9 8 8 8 4 4 8 12 14 15 16 17 18 22 23 17 18 26 18 17 18 23 24 22
2 8 5 5 4 4 3 3 5 4 3 2 6 15 22 9 5 4 6 8 8 5 5 5 4 6 9 11 13 15 17 17 17 18 20 20 24 21 26 24 21 17 19 19
6 1 3 3 2 3 4 4 2 4 5 1 7 8 5 3 2 2 2 1 4 8 7 4 6 8 9 10 12 14 18 20 20 19 17 23 22 24 21 17 17 18 18 19
6 3 4 2 4 6 2 2 3 0 4 3 4 6 7 3 6 4 5 4 5 6 3 4 6 8 7 10 12 15 18 22 20 16 20 20 19 19 21 20 20 22 17 14
5 2 3 3 4 4 5 1 3 3 3 4 1 2 8 5 6 4 6 7 7 5 4 6 7 5 8 12 15 17 20 20 18 17 18 19 18 19 20 20 20 20 17 16
7 3 1 3 2 3 5 3 4 4 2 2 2 3 6 3 5 3 1 4 6 5 5 5 5 7 11 14 17 19 20 18 19 17 20 19 18 19 18 17 17 18 15 16
2 2 2 5 1 3 4 3 3 4 2 5 2 1 10 6 5 5 5 6 4 5 5 4 5 8 12 15 16 18 17 21 20 20 19 18 18 18 17 17 16 16 14 14
1 4 3 2 2 3 4 4 4 6 2 4 1 6 6 6 4 5 4 4 6 6 5 4 4 7 11 12 17 18 19 20 21 20 19 18 17 16 16 16 16 16 15 14
2 4 2 3 1 2 1 3 2 6 1 3 2 7 9 3 4 4 7 5 8 6 5 4 6 9 12 14 16 17 18 19 19 18 17 17 14 15 15 14 15 16 13 11
1 5 2 1 1 3 2 2 2 2 0 4 4 5 5 5 4 4 6 7 7 4 4 3 5 10 12 14 15 15 15 16 16 15 14 13 14 12 11 10 10 10 9 8
3 2 1 1 3 3 2 2 2 3 3 4 2 7 7 7 6 6 8 6 6 5 3 3 6 10 12 12 13 14 14 14 14 13 13 12 11 9 7 5 6 6 6 6
2 3 4 4 3 2 2 4 3 4 4 1 3 7 3 5 4 3 10 8 4 3 3 4 6 10 11 11 11 12 12 12 11 11 10 9 9 7 6 5 5 5 4 3
2 3 3 2 2 1 3 3 3 4 3 5 4 6 1 3 6 7 9 6 4 3 3 4 6 9 10 11 11 10 9 9 9 8 7 8 8 8 9 9 8 6 4 3
1 3 5 2 1 2 1 2 3 3 3 4 7 10 15 9 7 9 6 5 5 5 5 4 6 7 10 10 9 8 8 7 6 6 7 9 9 9 10 10 11 10 5 5
2 4 4 8 10 5 6 8 8 9 6 7 4 7 13 12 9 7 5 6 6 6 5 5 4 4 9 7 6 5 5 5 4 5 8 9 9 9 11 13 14 16 14 14
2 3 2 5 3 2 6 8 11 14 3 10 10 23 14 5 4 5 7 5 6 6 7 6 5 6 8 6 5 5 5 6 4 5 7 7 9 10 11 13 15 17 17 18
2 2 3 4 1 6 6 7 7 4 2 8 6 11 3 5 6 5 6 5 7 7 6 7 7 8 7 6 5 4 3 4 4 4 4 6 9 12 13 14 16 17 18 20
1 0 1 4 6 1 4 0 2 4 6 11 9 8 7 7 7 10 9 6 7 7 6 7 9 10 9 6 4 3 3 4 2 2 4 5 8 11 13 15 15 15 16 18
5 1 2 2 2 7 3 3 5 5 5 7 8 12 6 5 6 8 3 7 6 7 7 14 16 12 10 8 7 6 5 4 4 3 3 5 7 7 8 9 9 11 12 13
2 1 1 1 2 2 5 4 3 3 4 4 5 6 3 2 4 4 4 3 6 9 11 16 16 14 13 12 9 7 8 7 8 6 6 6 7 7 8 7 7 7 7 9
1 1 3 3 3 7 4 4 5 5 6 3 5 5 4 3 6 3 4 3 5 10 16 16 16 19 19 13 12 12 10 12 8 8 7 7 8 9 9 8 7 7 7 7
5 5 3 2 2 5 5 1 3 6 5 3 4 4 6 8 7 5 5 5 6 8 13 17 18 21 20 17 15 15 16 12 11 11 11 10 9 8 8 7 8 9 8 9
2 4 3 6 4 4 6 6 6 4 8 8 4 5 6 8 6 6 7 8 9 13 17 21 22 22 22 22 21 21 22 15 15 16 15 14 13 12 10 10 11 11 11 10
3 2 2 2 3 6 7 5 4 4 6 8 8 9 6 10 9 9 7 7 8 14 17 23 23 21 24 28 27 28 22 18 19 20 19 18 17 16 14 14 13 14 14 14
3 3 3 5 8 12 4 9 8 16 5 9 8 7 10 9 12 9 7 8 9 16 20 25 24 23 28 32 32 30 27 22 23 23 23 22 21 19 18 18 18 18 18 16
2 4 3 4 15 5 17 18 18 14 15 15 15 16 10 8 10 7 9 10 14 16 21 23 25 25 31 35 35 33 30 29 26 27 27 27 26 24 23 22 23 22 22 20